Location: Krasnoyarskiy Pitomnik
(51.1333°N, 71.6167°E)
Time: 10:08:38
(UTC+00:00)

CENTAUR R/B - Pass Details

Date: 22 October 2021
Orbit: 728 x 1459 km, 63.4° (Epoch: 26 November)

Event Time Altitude Azimuth Distance (km) Brightness Sun altitude
Rises 14:11:36 0° 300° (WNW) 3,851 6.8 -20.3°
Reaches altitude 10° 14:14:22 10° 309° (NW) 3,005 5.9 -20.7°
Maximum altitude 14:21:01 36° 14° (NNE) 1,905 3.9 -21.7°
Enters shadow 14:24:41 25° 58° (ENE) 2,403 4.1 -22.3°
